COSMOS 2251 DEB, 37278

Orbit data source: Space-Track

COSMOS 2251 DEB, 37278 is space debris in LEO originally from a launch on Wed, 16 Jun 1993 UTC launched from the Plesetsk Missile And Space Complex (PKMTR). The debris from Iridium 33, an American commercial communications satellite, has been tracked extensively since its accidental collision with the defunct Russian satellite Cosmos 2251 in 2009. This event, occurring at high speed in low Earth orbit (LEO), generated thousands of pieces of space debris, significantly increasing the risk of further collisions. The Iridium 33 debris cloud has impacted space traffic management and orbital debris mitigation strategies, making it a subject of ongoing study in space situational awareness.

Loading next visibility...
Identifier
37278, 1993-036BHS
Orbit
LEO
Country
Flag of CISCIS
Related business
Manufacturer
Unknown
Mission
Spacecraft
Bus & Motor
Unknown
Mass
Unknown
Launch date (UTC)
1993-06-16 (33 years ago)
Launch vehicle
Unknown
Launch site
Plesetsk Missile And Space Complex (PKMTR)
Object type
Payload
Rocket body
Debris
Shape & HBR
Unknown shape, 0.1 m
Radar Cross Section
Medium (>0.1 m² and <1 m²)

Expand to show TLE details & history
Last TLE update: 2 weeks ago

TLE from 2 weeks ago
0 COSMOS 2251 DEB
1 37278U 93036BHS 26165.97730506  .00002790  00000-0  92971-3 0  9994
2 37278  73.7848  16.5873 0297206 167.1326 269.1706 14.15941477664367
Epoch: 2026-06-14T23:27Z
TLE epoch observation values (Epoch: 2026-06-14T23:27:19.157Z)
Latitude
66.69855°
Longitude
163.68241°
Altitude
859.746 km
Speed
7.424 km/s
True Right ascension
03h 55m 07s
True Declination
66° 34' 30"
Sunlit
Object was in daylight at epoch
Visualization orbit readout
Latitude
Unknown
Longitude
Unknown
Altitude
Unknown
Speed
Unknown
Apparent Right ascension
Unknown
Apparent Declination
Unknown
Sunlit
N/A
Visualization observer readout
Local Sidereal Time
22:50:17
Azimuth
Unknown
Elevation
Unknown
Doppler factor
Unknown
Orbital elements
Apogee altitude
1,051.207 km
Perigee altitude
622.344 km
Semi-major axis
7,214.913 km
Eccentricity
0.02972
Inclination
73.7848°
RAAN
16.5873°
Arg. of periapsis
167.1326°
True anomaly
265.76906°
Mean anomaly
269.1706°
Eccentric anomaly
267.4694°
Mean motion
3.54158 °/min
Orbital period
101.65 mins
BSTAR
0.00092971
Loading maneuver chart data...
Computing Atmospheric mass density...

Documentation

Showing up to 5 results
|